Date String (YYYY-MM-DD hh:mm:ss) UTC,Instrument flags,Ambient pressure (hPa),Sample flow (lpm),Bypass flow (lpm),Sample temperature (°C),Ambient temperature (°C),ASC tube jacket temperature (°C),LED temperature (°C),Box temperature (°C),Sample RH (%),Span deviation,Mass concentration (μg/m³),Mass concentration (μg/m³),Mass concentration (μg/m³)
DateTimeUTC,F1_M11,P_M11,Q1_M11,Q2_M11,T1_M11,T2_M11,T3_M11,T4_M11,T5_M11,U1_M11,ZSPAN_M11,X0_M11,X2_M11,X1_M11
2022-07-19 09:00:00,,0826.5,5.00,0.00,29.4,27.3,00.0,38.1,31.2,22.7,0000.0,0010.00,0004.15,0003.16
2022-07-19 09:01:00,,0826.5,5.00,0.00,29.4,27.5,00.0,38.1,31.2,22.7,0000.0,0009.91,0004.10,0003.16
2022-07-19 09:02:00,,0826.6,5.00,0.00,29.4,27.7,00.0,38.1,31.2,22.7,0000.0,0009.79,0004.06,0003.15
2022-07-19 09:03:00,,0826.5,4.99,0.00,29.4,27.9,00.0,38.2,31.3,22.7,0000.0,0009.71,0004.06,0003.16
2022-07-19 09:04:00,,0826.5,5.00,0.00,29.4,28.0,00.0,38.2,31.3,22.7,0000.0,0010.52,0004.12,0003.16
2022-07-19 09:05:00,,0826.5,5.00,0.00,29.4,28.1,00.0,38.2,31.4,22.7,0000.0,0010.59,0004.16,0003.17
2022-07-19 09:06:00,,0826.5,4.99,0.00,29.5,28.3,00.0,38.2,31.4,22.7,0000.0,0010.90,0004.20,0003.16
2022-07-19 09:07:00,,0826.5,5.01,0.00,29.5,28.4,00.0,38.2,31.5,22.6,0000.0,0010.37,0004.17,0003.15
2022-07-19 09:08:00,,0826.5,4.99,0.00,29.5,28.5,00.0,38.2,31.5,22.6,0000.0,0009.99,0004.20,0003.16
2022-07-19 09:09:00,,0826.5,4.99,0.00,29.6,28.5,00.0,38.2,31.6,22.6,0000.0,0010.34,0004.17,0003.15
2022-07-19 09:10:00,,0826.5,5.01,0.00,29.6,28.6,00.0,38.3,31.6,22.5,0000.0,0010.63,0004.16,0003.15
2022-07-19 09:11:00,,0826.6,5.01,0.00,29.6,28.7,00.0,38.3,31.6,22.3,0000.0,0010.77,0004.15,0003.13
2022-07-19 09:12:00,,0826.5,4.99,0.00,29.7,28.3,00.0,38.3,31.7,22.3,0000.0,0011.35,0004.21,0003.14
2022-07-19 09:13:00,,0826.5,5.00,0.00,29.7,27.7,00.0,38.2,31.6,22.3,0000.0,0011.92,0004.27,0003.14
2022-07-19 09:14:00,,0826.6,5.01,0.00,29.6,27.5,00.0,38.2,31.5,22.4,0000.0,0012.40,0004.22,0003.13
2022-07-19 09:15:00,,0826.5,5.00,0.00,29.6,27.6,00.0,38.2,31.4,22.4,0000.0,0012.51,0004.21,0003.12
2022-07-19 09:16:00,,0826.5,5.00,0.00,29.5,27.7,00.0,38.2,31.4,22.4,0000.0,0012.54,0004.19,0003.10
2022-07-19 09:17:00,,0826.5,5.00,0.00,29.5,27.8,00.0,38.2,31.4,22.4,0000.0,0012.25,0004.17,0003.11
2022-07-19 09:18:00,,0826.5,4.99,0.00,29.5,28.0,00.0,38.2,31.4,22.4,0000.0,0012.74,0004.25,0003.09
2022-07-19 09:19:00,,0826.5,5.01,0.00,29.5,28.1,00.0,38.3,31.4,22.4,0000.0,0013.02,0004.27,0003.08
2022-07-19 09:20:00,,0826.5,5.00,0.00,29.6,28.2,00.0,38.3,31.5,22.3,0000.0,0013.11,0004.27,0003.09
2022-07-19 09:21:00,,0826.5,5.01,0.00,29.6,28.3,00.0,38.3,31.5,22.3,0000.0,0013.17,0004.26,0003.08
2022-07-19 09:22:00,,0826.5,5.01,0.00,29.6,28.4,00.0,38.3,31.6,22.3,0000.0,0012.93,0004.29,0003.10
2022-07-19 09:23:00,,0826.5,4.99,0.00,29.7,28.5,00.0,38.3,31.6,22.2,0000.0,0012.76,0004.31,0003.11
2022-07-19 09:24:00,,0826.6,5.01,0.00,29.7,28.6,00.0,38.3,31.7,22.2,0000.0,0012.64,0004.37,0003.12
2022-07-19 09:25:00,,0826.6,5.00,0.00,29.7,28.0,00.0,38.3,31.6,22.2,0000.0,0012.34,0004.41,0003.13
2022-07-19 09:26:00,,0826.5,5.01,0.00,29.7,27.2,00.0,38.2,31.5,22.3,0000.0,0011.74,0004.44,0003.14
2022-07-19 09:27:00,,0826.5,4.99,0.00,29.6,27.0,00.0,38.2,31.4,22.6,0000.0,0012.05,0004.48,0003.15
2022-07-19 09:28:00,,0826.5,5.00,0.00,29.5,27.0,00.0,38.2,31.2,22.7,0000.0,0012.09,0004.48,0003.15
2022-07-19 09:29:00,,0826.5,4.99,0.00,29.5,27.1,00.0,38.2,31.2,22.7,0000.0,0011.84,0004.44,0003.17
2022-07-19 09:30:00,,0826.5,5.00,0.00,29.4,27.3,00.0,38.2,31.2,22.8,0000.0,0011.50,0004.40,0003.17
2022-07-19 09:31:00,,0826.5,4.99,0.00,29.4,27.5,00.0,38.2,31.2,22.9,0000.0,0011.01,0004.40,0003.18
2022-07-19 09:32:00,,0826.5,5.00,0.00,29.4,27.7,00.0,38.2,31.3,22.9,0000.0,0010.85,0004.48,0003.19
2022-07-19 09:33:00,,0826.4,4.99,0.00,29.4,27.9,00.0,38.2,31.3,22.9,0000.0,0011.39,0004.50,0003.20
2022-07-19 09:34:00,,0826.5,5.00,0.00,29.5,28.0,00.0,38.2,31.4,22.9,0000.0,0011.18,0004.41,0003.19
2022-07-19 09:35:00,,0826.5,5.00,0.00,29.5,28.1,00.0,38.2,31.4,22.8,0000.0,0010.73,0004.31,0003.19
2022-07-19 09:36:00,,0826.5,4.99,0.00,29.5,28.3,00.0,38.2,31.4,22.9,0000.0,0010.84,0004.28,0003.20
2022-07-19 09:37:00,,0826.5,5.01,0.00,29.5,28.4,00.0,38.3,31.5,22.8,0000.0,0011.36,0004.25,0003.20
2022-07-19 09:38:00,,0826.5,4.99,0.00,29.6,28.5,00.0,38.3,31.5,22.8,0000.0,0010.81,0004.19,0003.20
2022-07-19 09:39:00,,0826.5,5.00,0.00,29.6,28.6,00.0,38.3,31.6,22.8,0000.0,0010.53,0004.22,0003.22
2022-07-19 09:40:00,,0826.5,5.00,0.00,29.6,28.6,00.0,38.3,31.6,22.7,0000.0,0010.40,0004.25,0003.22
2022-07-19 09:41:00,,0826.5,5.01,0.00,29.7,28.5,00.0,38.3,31.7,22.7,0000.0,0010.82,0004.27,0003.22
2022-07-19 09:42:00,,0826.5,5.00,0.00,29.7,27.6,00.0,38.3,31.5,22.6,0000.0,0011.08,0004.31,0003.23
2022-07-19 09:43:00,,0826.5,5.01,0.00,29.6,27.1,00.0,38.2,31.4,22.6,0000.0,0010.89,0004.31,0003.23
2022-07-19 09:44:00,,0826.5,4.99,0.00,29.6,27.0,00.0,38.2,31.3,22.7,0000.0,0010.46,0004.33,0003.24
2022-07-19 09:45:00,,0826.5,5.01,0.00,29.5,27.0,00.0,38.2,31.2,22.8,0000.0,0010.49,0004.36,0003.24
2022-07-19 09:46:00,,0826.5,5.00,0.00,29.4,27.2,00.0,38.2,31.2,22.9,0000.0,0010.39,0004.34,0003.24
2022-07-19 09:47:00,,0826.5,5.00,0.00,29.4,27.4,00.0,38.2,31.2,22.8,0000.0,0010.16,0004.41,0003.24
2022-07-19 09:48:00,,0826.5,5.00,0.00,29.4,27.6,00.0,38.2,31.2,22.9,0000.0,0009.57,0004.45,0003.23
2022-07-19 09:49:00,,0826.5,5.00,0.00,29.4,27.7,00.0,38.2,31.3,22.9,0000.0,0009.58,0004.50,0003.24
2022-07-19 09:50:00,,0826.4,5.00,0.00,29.4,27.9,00.0,38.2,31.3,22.8,0000.0,0009.57,0004.49,0003.23
2022-07-19 09:51:00,,0826.5,5.00,0.00,29.4,28.0,00.0,38.2,31.4,22.8,0000.0,0009.53,0004.47,0003.22
2022-07-19 09:52:00,,0826.5,4.98,0.00,29.5,28.2,00.0,38.2,31.4,22.8,0000.0,0009.22,0004.49,0003.23
2022-07-19 09:53:00,,0826.5,5.01,0.00,29.5,28.3,00.0,38.2,31.5,23.1,0000.0,0009.01,0004.49,0003.22
2022-07-19 09:54:00,,0826.5,5.00,0.00,29.5,28.4,00.0,38.2,31.5,23.2,0000.0,0008.75,0004.42,0003.21
2022-07-19 09:55:00,,0826.5,5.00,0.00,29.6,28.5,00.0,38.3,31.6,22.9,0000.0,0008.67,0004.37,0003.19
2022-07-19 09:56:00,,0826.5,5.00,0.00,29.6,28.6,00.0,38.3,31.6,22.8,0000.0,0008.57,0004.33,0003.20
2022-07-19 09:57:00,,0826.5,4.99,0.00,29.6,28.6,00.0,38.3,31.6,22.7,0000.0,0008.87,0004.41,0003.20
2022-07-19 09:58:00,,0826.5,5.00,0.00,29.7,28.5,00.0,38.3,31.7,22.7,0000.0,0008.92,0004.42,0003.21
2022-07-19 09:59:00,,0826.5,5.01,0.00,29.7,27.8,00.0,38.2,31.6,22.7,0000.0,0009.07,0004.39,0003.22
